Regional Weather Roundup
Issued by NWS Sioux Falls, SD

Home | Current Version | Previous Version | Graphics & Text | Print | Product List | Glossary On
Versions: 1 2 3 4 5 6 7 8 9 10 11 12 13 14 15 16 17 18 19 20 21 22 23 24 25 26 27 28 29 30 31 32 33 34 35 36 37 38 39 40 41 42 43 44 45 46 47 48 49 50
036
ASUS43 KFSD 240302
RWRFSD

WEATHER ROUNDUP FOR SE SOUTH DAKOTA/SW MINNESOTA/NW IOWA
NATIONAL WEATHER SERVICE SIOUX FALLS SD
1000 PM CDT FRI JUN 23 2017

NOTE: "FAIR" INDICATES FEW OR NO CLOUDS BELOW 12,000 FEET WITH NO
SIGNIFICANT WEATHER AND OR OBSTRUCTIONS TO VISIBILITY.


SDZ038>040-050-052>070-240400-
SOUTHEAST SOUTH DAKOTA

CITY           SKY/WX    TMP DP  RH WIND       PRES   REMARKS
BROOKINGS      CLEAR     54  43  66 NW7       30.06R
CHAMBERLAIN    CLEAR     59  40  49 W5        30.12R
HURON          CLEAR     53  44  71 NW6       30.08R
MADISON        FAIR      54  41  62 NW8       30.07R
MITCHELL       CLEAR     59  40  49 NW6       30.09R
SIOUX FALLS    PTCLDY    56  44  64 NW8       30.06R
WINNER         FAIR      59  34  39 N7        30.14R
YANKTON        CLEAR     57  42  57 NW8       30.09R
$$

MNZ071-072-080-081-089-090-097-098-240400-
SOUTHWEST MINNESOTA

CITY           SKY/WX    TMP DP  RH WIND       PRES   REMARKS
FAIRMONT       PTCLDY    60  49  66 W12       30.00R
JACKSON        CLEAR     55  46  71 CALM      30.02R
LUVERNE        PTCLDY    59  41  51 NW7       30.05R
MARSHALL       PTCLDY    57  46  66 NW10      30.02R
MONTEVIDEO     PTCLDY    57  45  62 NW5       29.99R
PIPESTONE      CLEAR     61  39  44 NW7       30.05R
REDWOOD FALLS  PTCLDY    57  47  69 W7        29.98R
TRACY          CLEAR     60  48  64 W7        30.02R
WINDOM         CLEAR     55  48  76 W7        30.01R
WORTHINGTON    PTCLDY    55  47  74 W8        30.04R
$$

IAZ001>003-012>014-020>022-031-032-NEZ013-014-SDZ071-240400-
NORTHWEST IOWA

CITY           SKY/WX    TMP DP  RH WIND       PRES   REMARKS
CHEROKEE       CLEAR     60  46  60 NW3       30.04R
DENISON        PTCLDY    61  48  63 CALM      30.06R
ESTHERVILLE    PTCLDY    56  51  84 W8        30.01R
LE MARS        CLEAR     59  41  51 NW7       30.07R
ORANGE CITY    CLEAR     57  43  58 NW7       30.06R
SHELDON        CLEAR     59  46  63 W7        30.03R
SIOUX CITY     CLEAR     61  44  53 N8        30.06R
SPENCER        PTCLDY    54  49  83 NW7       30.03R
STORM LAKE     PTCLDY    59  46  63 NW8       30.05R
$$

ABBREVIATIONS USED IN REMARKS
   TC - TEMPERATURE IN CELSIUS
  WCI - WIND CHILL INDEX
   HX - HEAT INDEX
  VSB - VISIBILITY





USA.gov is the U.S. government's official web portal to all federal, state and local government web resources and services.